| time (UTC) | temp F | wind direction | speed MPH | gust MPH | rain 1hr in | rain 24hr in | rain mn in | humidity % | barometer mb |
| 20260505152626 | 38 | 0 | 0.0 | 3.0 | 0.00 | 0.01 | 0.00 | 95 | 1000.8 |
| 20260505151122 | 37 | 321 | 3.0 | 5.0 | 0.00 | 0.01 | 0.00 | 95 | 1000.5 |
| 20260505124040 | 37 | 0 | 0.0 | 0.0 | 0.00 | 0.02 | 0.00 | 94 | 1000.3 |
| 20260505121030 | 38 | 0 | 0.0 | 0.0 | 0.00 | 0.03 | 0.00 | 94 | 1000.5 |
| 20260505115525 | 38 | 0 | 0.0 | 0.0 | 0.00 | 0.03 | 0.00 | 94 | 1000.5 |
| 20260505114021 | 38 | 0 | 0.0 | 0.0 | 0.00 | 0.03 | 0.00 | 94 | 1000.6 |
| 20260505112517 | 38 | 0 | 0.0 | 0.0 | 0.00 | 0.03 | 0.00 | 94 | 1000.7 |
| 20260505111014 | 39 | 0 | 0.0 | 0.0 | 0.00 | 0.04 | 0.00 | 94 | 1000.6 |
| 20260505100958 | 39 | 0 | 0.0 | 0.0 | 0.00 | 0.05 | 0.00 | 94 | 1000.5 |
| 20260505095452 | 39 | 0 | 0.0 | 0.0 | 0.00 | 0.05 | 0.00 | 93 | 1000.5 |
| 20260505093947 | 39 | 0 | 0.0 | 0.0 | 0.00 | 0.05 | 0.00 | 93 | 1001.0 |
| 20260505090937 | 39 | 0 | 0.0 | 0.0 | 0.00 | 0.05 | 0.00 | 93 | 1000.9 |
| 20260505085433 | 39 | 0 | 0.0 | 0.0 | 0.00 | 0.05 | 0.00 | 93 | 1000.9 |
| 20260505082423 | 40 | 0 | 0.0 | 0.0 | 0.00 | 0.05 | 0.05 | 93 | 1001.0 |
| 20260505080919 | 40 | 0 | 0.0 | 0.0 | 0.00 | 0.05 | 0.05 | 92 | 1001.0 |
| 20260505075413 | 40 | 0 | 0.0 | 3.0 | 0.00 | 0.05 | 0.05 | 92 | 1001.1 |
| 20260505073909 | 40 | 0 | 0.0 | 4.0 | 0.00 | 0.05 | 0.05 | 92 | 1001.0 |
| 20260505072405 | 41 | 307 | 1.0 | 7.0 | 0.00 | 0.05 | 0.05 | 92 | 1001.0 |
| 20260505070901 | 41 | 324 | 1.0 | 5.0 | 0.00 | 0.05 | 0.05 | 92 | 1001.0 |
| 20260505063851 | 41 | 314 | 1.0 | 8.0 | 0.00 | 0.05 | 0.05 | 91 | 1001.0 |
| 20260505062347 | 41 | 354 | 3.0 | 7.0 | 0.00 | 0.05 | 0.05 | 91 | 1001.2 |
| 20260505060843 | 42 | 321 | 4.0 | 7.0 | 0.00 | 0.05 | 0.05 | 90 | 1001.2 |
| 20260505055340 | 42 | 0 | 0.0 | 5.0 | 0.00 | 0.05 | 0.05 | 88 | 1001.0 |
| 20260505053835 | 43 | 0 | 0.0 | 0.0 | 0.00 | 0.05 | 0.05 | 88 | 1001.5 |
| 20260505052331 | 43 | 0 | 0.0 | 2.0 | 0.00 | 0.05 | 0.05 | 87 | 1001.5 |
| 20260505050827 | 43 | 0 | 0.0 | 0.0 | 0.00 | 0.05 | 0.05 | 87 | 1001.5 |
| 20260505040809 | 47 | 0 | 0.0 | 5.0 | 0.00 | 0.05 | 0.05 | 80 | 1002.3 |
| 20260505033759 | 50 | 0 | 0.0 | 6.0 | 0.00 | 0.05 | 0.05 | 72 | 1002.7 |
| 20260505032255 | 49 | 0 | 0.0 | 1.0 | 0.00 | 0.05 | 0.05 | 74 | 1002.9 |
| 20260505030751 | 48 | 307 | 1.0 | 9.0 | 0.00 | 0.05 | 0.05 | 77 | 1003.5 |
| 20260505025247 | 47 | 283 | 6.0 | 12.0 | 0.00 | 0.06 | 0.05 | 80 | 1003.7 |
| 20260505023739 | 47 | 332 | 6.0 | 15.0 | 0.00 | 0.06 | 0.05 | 78 | 1003.7 |
| 20260505022235 | 47 | 326 | 2.0 | 8.0 | 0.00 | 0.06 | 0.05 | 82 | 1003.8 |
| 20260505020731 | 46 | 0 | 0.0 | 9.0 | 0.00 | 0.06 | 0.05 | 82 | 1004.2 |
| 20260505015225 | 45 | 337 | 5.0 | 11.0 | 0.00 | 0.06 | 0.05 | 86 | 1004.7 |
| 20260505013721 | 45 | 322 | 6.0 | 14.0 | 0.00 | 0.06 | 0.05 | 83 | 1004.8 |
| 20260505012217 | 46 | 316 | 3.0 | 10.0 | 0.00 | 0.06 | 0.05 | 84 | 1005.3 |
| 20260505010713 | 46 | 319 | 5.0 | 11.0 | 0.00 | 0.06 | 0.05 | 85 | 1005.5 |
| 20260505005207 | 46 | 0 | 0.0 | 3.0 | 0.00 | 0.06 | 0.05 | 86 | 1005.5 |
| 20260505002157 | 44 | 0 | 0.0 | 6.0 | 0.00 | 0.06 | 0.05 | 88 | 1006.7 |
| 20260505000653 | 44 | 316 | 3.0 | 7.0 | 0.00 | 0.06 | 0.05 | 88 | 1007.1 |
| 20260504235149 | 44 | 339 | 3.0 | 9.0 | 0.00 | 0.06 | 0.05 | 89 | 1007.3 |
| 20260504233645 | 43 | 298 | 8.0 | 12.0 | 0.00 | 0.06 | 0.05 | 90 | 1007.7 |
| 20260504232139 | 44 | 308 | 4.0 | 8.0 | 0.00 | 0.06 | 0.05 | 90 | 1007.4 |
| 20260504230635 | 44 | 313 | 2.0 | 11.0 | 0.00 | 0.06 | 0.05 | 90 | 1007.6 |
| 20260504225131 | 44 | 328 | 5.0 | 12.0 | 0.00 | 0.06 | 0.05 | 90 | 1007.8 |
| 20260504223627 | 44 | 328 | 2.0 | 11.0 | 0.00 | 0.06 | 0.05 | 92 | 1008.2 |
| 20260504222123 | 44 | 348 | 6.0 | 13.0 | 0.00 | 0.06 | 0.05 | 94 | 1008.5 |
| 20260504220620 | 44 | 292 | 5.0 | 8.0 | 0.00 | 0.06 | 0.05 | 95 | 1008.5 |
| 20260504215115 | 44 | 286 | 4.0 | 9.0 | 0.00 | 0.06 | 0.05 | 96 | 1008.4 |
| 20260504213611 | 44 | 0 | 0.0 | 6.0 | 0.00 | 0.06 | 0.05 | 96 | 1008.8 |
| 20260504212107 | 43 | 0 | 0.0 | 6.0 | 0.00 | 0.06 | 0.05 | 96 | 1009.0 |
| 20260504210601 | 42 | 0 | 0.0 | 4.0 | 0.00 | 0.06 | 0.05 | 96 | 1009.4 |
| 20260504205057 | 41 | 6 | 1.0 | 5.0 | 0.00 | 0.06 | 0.05 | 96 | 1009.5 |
| 20260504203553 | 41 | 332 | 4.0 | 10.0 | 0.00 | 0.06 | 0.05 | 96 | 1009.9 |
| 20260504202049 | 42 | 302 | 4.0 | 8.0 | 0.00 | 0.06 | 0.05 | 96 | 1010.3 |
| 20260504200545 | 42 | 0 | 0.0 | 5.0 | 0.00 | 0.06 | 0.05 | 96 | 1010.6 |
| 20260504195041 | 42 | 360 | 2.0 | 6.0 | 0.00 | 0.06 | 0.05 | 96 | 1011.0 |
| 20260504193537 | 41 | 312 | 2.0 | 3.0 | 0.01 | 0.06 | 0.05 | 96 | 1011.0 |
| 20260504192033 | 41 | 333 | 3.0 | 10.0 | 0.01 | 0.06 | 0.05 | 96 | 1011.3 |
| 20260504190529 | 42 | 0 | 0.0 | 0.0 | 0.01 | 0.06 | 0.05 | 96 | 1011.2 |
| 20260504185025 | 41 | 321 | 4.0 | 7.0 | 0.01 | 0.06 | 0.05 | 96 | 1011.5 |
| 20260504183522 | 41 | 0 | 0.0 | 0.0 | 0.00 | 0.05 | 0.04 | 96 | 1011.6 |
| 20260504182017 | 41 | 0 | 0.0 | 3.0 | 0.00 | 0.05 | 0.04 | 96 | 1011.9 |
| 20260504180513 | 41 | 0 | 0.0 | 4.0 | 0.00 | 0.05 | 0.04 | 96 | 1012.1 |
| 20260504175009 | 41 | 0 | 0.0 | 0.0 | 0.00 | 0.05 | 0.04 | 96 | 1012.3 |
| 20260504173505 | 40 | 0 | 0.0 | 2.0 | 0.00 | 0.05 | 0.04 | 95 | 1012.5 |
| 20260504172001 | 41 | 0 | 0.0 | 0.0 | 0.00 | 0.05 | 0.04 | 96 | 1012.3 |
| 20260504170457 | 40 | 0 | 0.0 | 0.0 | 0.00 | 0.05 | 0.04 | 96 | 1012.6 |